Back to catalog

STARLINK-5593

AliveCommunicationsVLEO
NORAD 55763·PAYLOAD·🇺🇸 United States

Launched Mar 3, 2023 from Vandenberg Space Force Base

Loading…

Next Passes (next 24 hours)

TLE

FreshSource: CelesTrak SupGP

Epoch: Sep 14, 2026, 13:18 UTC

1 55763C 23028Y   26257.55465278  .00061916  00000+0  51895-2 0  2574
2 55763  69.9999 128.1010 0002476 264.3079 119.7888 14.98295831    15

Track STARLINK-5593 in real time with AllMySat

Download on the App Store